Regional Weather Roundup
Issued by NWS Green Bay, WI

Home | Current Version | Previous Version | Graphics & Text | Print | Product List | Glossary Off
Versions: 1 2 3 4 5 6 7 8 9 10 11 12 13 14 15 16 17 18 19 20 21 22 23 24 25 26 27 28 29 30 31 32 33 34 35 36 37 38 39 40 41 42 43 44 45 46 47 48 49 50

000
ASUS43 KGRB 291710
RWRGRB

NORTH-CENTRAL AND NORTHEAST WISCONSIN REGIONAL WEATHER ROUNDUP
NATIONAL WEATHER SERVICE GREEN BAY WI
1200 PM CDT FRI AUG 29 2014

WIZ005-009-010>012-018-019-291800-
NORTH CENTRAL WISCONSIN

CITY           SKY/WX    TMP DP  RH WIND       PRES   REMARKS
IRONWOOD       NOT AVBL
MANITOWISH WTR CLOUDY    63  62  99 S9        29.88F
ARBOR VITAE    CLOUDY    63  61  94 SE8       29.89F
EAGLE RIVER    CLOUDY    63  62  99 S8        29.91F
LAND O LAKES   CLOUDY    62  61  96 SE5       29.91F
RHINELANDER    CLOUDY    62  61  96 S7        29.91F FOG
PHILLIPS       CLOUDY    64  63  96 S7        29.87F
ANTIGO         FOG       62  62 100 SE8       29.93F VSB 1/4
TOMAHAWK       FOG       62  61  96 SE5       29.91F VSB 1
MERRILL        CLOUDY    64  64 100 S6        29.90F FOG
$$

WIZ013-073-291800-
NORTHEAST WISCONSIN

CITY           SKY/WX    TMP DP  RH WIND       PRES   REMARKS
IRON MOUNTAIN  CLOUDY    62  60  93 SE7       29.92F FOG
MARINETTE      CLOUDY    68  64  88 S7        29.90F
OCONTO         CLOUDY    72  70  92 S8        29.89F
$$

WIZ017-030-035>037-045-291800-
CENTRAL WISCONSIN

CITY           SKY/WX    TMP DP  RH WIND       PRES   REMARKS
MEDFORD        CLOUDY    64  64 100 S9        29.89F FOG
WAUSAU         CLOUDY    65  64  97 SE7       29.89F FOG
MOSINEE        FOG       64  64 100 S7        29.92  VSB 1
MARSHFIELD     CLOUDY    70  67  90 S10       29.89F FOG
WISC RAPIDS    CLOUDY    71  67  87 S6        29.91S
STEVENS POINT  CLOUDY    68  65  91 S8        29.91F FOG
WAUPACA        CLOUDY    74  69  86 S7        29.91F HAZE
SHAWANO        CLOUDY    72  68  88 CALM      29.91F
CLINTONVILLE   CLOUDY    72  66  83 SW7       29.91S
$$

WIZ038-039-048-051-291800-
FOX VALLEY

CITY           SKY/WX    TMP DP  RH WIND       PRES   REMARKS
NWS GREEN BAY  PTSUNNY   77  71  82 S10       29.89F
APPLETON       PTSUNNY   75  70  83 S14       29.91F
OSHKOSH        MOSUNNY   80  70  71 S15       29.90F
FOND DU LAC    SUNNY     81  69  67 S17       29.90F
$$

WIZ022-050-052-291800-
EAST CENTRAL WISCONSIN

CITY           SKY/WX    TMP DP  RH WIND       PRES   REMARKS
STURGEON BAY   CLOUDY    68  64  88 S17G24    29.93F
MANITOWOC      PTSUNNY   73  69  87 S21G26    29.93F
SHEBOYGAN      MOSUNNY   78  70  76 S12       29.93F
$$

LMZ563-521-522-541>543-291800-
LAKESHORE

STATION/POSITION TIME  TEMP    WIND        PRES    VSBY  WAVE
                       AIR SEA DIR/SP/G                  HT/PER
                 (UTC) (F)     (DEG/KT/KT) (MB)    (MI)  (FT/S)
SHEBOYGAN LKSHOR 1700   68 69  170/ 18/ 19 1013.3F
KEWAUNEE LKSHORE 1700   67     170/ 15/ 18 1012.7F
NORTHPORT PIER   1700   65     150/  8/ 14 1013.5F
N MID LAKE BUOY  1700   64 65  170/ 16/ 19 1013.9F         3/ 4
S GREEN BAY BUOY 1700   71     VRB 12/ 16  1013.4F
SISTER BAY LKSHO 1600   64     180/ 13/ 15   N/A
CHAMBERS ISLAND  1700   67     140/  5/ 12 1013.2F
MENOMINEE LKSHOR 1700   69     160/ 14/ 18 1013.0F
$$



USA.gov is the U.S. government's official web portal to all federal, state and local government web resources and services.